Flag for Germany Weather past 2 weeks in Biberach an der Riss, Baden-Württemberg, Germany

Now
61 °F

Passing clouds.


Feels Like: 61 °F
Forecast: 54 / 82 °F
Wind: 3 mph from Southwest

Location: Laupheim Airport

Current Time: Aug 2, 2015 at 3:13:37 AM

Latest Report: Aug 2, 2015 at 2:20 AM


Visibility: N/A

Pressure: 30.07 "Hg (28.22 "Hg at 536m altitude)

Humidity: 94%

Dew point: 59 °F

Location of Biberach an der RissLocation

Historic Weather in Biberach an der Riss — Graph

°F

Biberach an der Riss temperature yesterday

Maximum temperature yesterday: 66 °F (at 4:20 PM)
Minimum temperature yesterday: 54 °F (at 5:20 AM)
Average temperature yesterday: 60 °F

Past Weeks' High & Low Weather Summary

 TemperatureHumidityPressure
High91 °F (Jul 22, 3:20 PM)100% (Jul 19, 5:01 AM)30.18 "Hg (Jul 19, 5:01 AM)
Low46 °F (Jul 30, 4:20 AM)32% (Jul 22, 3:20 PM)29.77 "Hg (Jul 24, 6:20 PM)
Average67 °F68%29.97 "Hg
* Reported Jul 18 1:20 AM — Aug 2 1:20 AM, Biberach an der Riss, Weather by CustomWeather, © 2015

Note: Actual official high and low records may vary slightly from our data, if they occured in-between our weather recording intervals... More about our weather records

Advertising

Biberach an der Riss weather history for previous 24 hours

 ConditionsComfort  
Time TempWeatherWind HumidityBarometerVisibility
1:20 AM
Sun, Aug 2
61 °FPassing clouds.5 mph88%30.07 "HgN/A
12:20 AM61 °FOvercast.5 mph94%30.07 "HgN/A
11:20 PM
Sat, Aug 1
63 °FMostly cloudy.3 mph88%30.07 "HgN/A
10:20 PM63 °FOvercast.2 mph88%30.07 "HgN/A
9:20 PM63 °FLight rain. Overcast.1 mph83%30.04 "HgN/A
8:20 PM64 °FOvercast.No wind78%30.01 "HgN/A
7:20 PM64 °FPartly sunny.2 mph78%30.01 "HgN/A
6:20 PM64 °FPartly sunny.3 mph78%30.01 "HgN/A
5:20 PM66 °FPartly sunny.5 mph68%30.01 "HgN/A
4:20 PM66 °FPartly sunny.3 mph68%30.01 "HgN/A
3:20 PM64 °FPartly sunny.3 mph73%30.01 "HgN/A
2:20 PM63 °FPartly sunny.6 mph77%30.01 "HgN/A
1:20 PM63 °FPartly sunny.6 mph83%30.01 "HgN/A
12:20 PM57 °FRain. More clouds than sun.7 mph94%30.04 "HgN/A
11:20 AM57 °FLight rain. Mostly cloudy.9 mph88%30.04 "HgN/A
10:20 AM57 °FLight rain. Overcast.8 mph82%30.01 "HgN/A
9:20 AM55 °FLight rain. Overcast.7 mph88%30.01 "HgN/A
8:20 AM55 °FLight rain. Overcast.3 mph82%29.98 "HgN/A
7:20 AM55 °FBroken clouds.1 mph72%29.95 "HgN/A
6:20 AM55 °FPartly cloudy.3 mph72%29.92 "HgN/A
5:20 AM54 °FPartly cloudy.2 mph77%29.92 "HgN/A
4:20 AM55 °FPartly cloudy.1 mph72%29.92 "HgN/A
3:20 AM57 °FPassing clouds.3 mph72%29.92 "HgN/A
Weather by CustomWeather, © 2015

See weather overviewHow to use our weather pages